Time,TemperatureF,DewpointF,PressureIn,WindDirection,WindDirectionDegrees,WindSpeedMPH,WindSpeedGustMPH,Humidity,HourlyPrecipIn,Conditions,Clouds,dailyrainin,SoftwareType,DateUTC
2013-02-09 00:00:00,17.8,15.1,29.81,NE,36,5.0,6.0,89,0.00,,,0.00,Wunderground v.1.15,2013-02-09 05:00:00,
2013-02-09 00:05:00,17.8,15.1,29.81,North,5,5.0,6.0,89,0.00,,,0.00,Wunderground v.1.15,2013-02-09 05:05:00,
2013-02-09 00:15:00,17.7,15.3,29.81,NNE,21,5.0,8.0,90,0.00,,,0.00,Wunderground v.1.15,2013-02-09 05:15:00,
2013-02-09 00:20:00,17.7,15.3,29.82,NNW,342,4.0,4.0,90,0.00,,,0.00,Wunderground v.1.15,2013-02-09 05:20:00,
2013-02-09 00:25:00,17.7,15.3,29.83,North,10,4.0,4.0,90,0.00,,,0.00,Wunderground v.1.15,2013-02-09 05:25:00,
2013-02-09 00:30:00,17.7,15.3,29.82,North,351,2.0,7.0,90,0.00,,,0.00,Wunderground v.1.15,2013-02-09 05:30:00,
2013-02-09 00:40:00,17.7,15.3,29.82,NNE,23,2.0,3.0,90,0.00,,,0.00,Wunderground v.1.15,2013-02-09 05:40:00,
2013-02-09 00:45:00,17.7,15.3,29.82,NNW,346,3.0,8.0,90,0.00,,,0.00,Wunderground v.1.15,2013-02-09 05:45:00,
2013-02-09 00:50:00,17.7,15.3,29.81,NNW,329,3.0,5.0,90,0.00,,,0.00,Wunderground v.1.15,2013-02-09 05:50:00,
2013-02-09 01:00:00,17.5,15.1,29.80,NNW,334,4.0,4.0,90,0.00,,,0.00,Wunderground v.1.15,2013-02-09 06:00:00,
2013-02-09 01:05:00,17.7,15.3,29.80,North,355,4.0,8.0,90,0.00,,,0.00,Wunderground v.1.15,2013-02-09 06:05:00,
2013-02-09 01:10:00,17.7,15.3,29.80,WNW,303,4.0,4.0,90,0.00,,,0.00,Wunderground v.1.15,2013-02-09 06:10:00,
2013-02-09 01:15:00,17.8,15.4,29.80,North,5,4.0,6.0,90,0.00,,,0.00,Wunderground v.1.15,2013-02-09 06:15:00,
2013-02-09 01:20:00,17.8,15.6,29.79,NNE,13,4.0,5.0,91,0.00,,,0.00,Wunderground v.1.15,2013-02-09 06:20:00,
2013-02-09 01:25:00,18.0,15.8,29.79,NNE,15,5.0,10.0,91,0.00,,,0.00,Wunderground v.1.15,2013-02-09 06:25:00,
2013-02-09 01:30:00,18.1,15.9,29.79,WNW,292,4.0,4.0,91,0.00,,,0.00,Wunderground v.1.15,2013-02-09 06:30:00,
2013-02-09 01:35:00,18.3,16.1,29.80,NNW,327,3.0,4.0,91,0.00,,,0.00,Wunderground v.1.15,2013-02-09 06:35:00,
2013-02-09 01:45:00,18.6,16.4,29.80,NNW,343,4.0,7.0,91,0.00,,,0.00,Wunderground v.1.15,2013-02-09 06:45:00,
2013-02-09 01:50:00,18.8,16.6,29.80,North,355,4.0,4.0,91,0.00,,,0.00,Wunderground v.1.15,2013-02-09 06:50:00,
2013-02-09 01:55:00,18.8,16.6,29.81,NW,325,3.0,8.0,91,0.00,,,0.00,Wunderground v.1.15,2013-02-09 06:55:00,
2013-02-09 02:05:00,18.8,16.6,29.80,North,9,4.0,5.0,91,0.00,,,0.00,Wunderground v.1.15,2013-02-09 07:05:00,
2013-02-09 02:10:00,18.8,16.6,29.80,NNW,331,4.0,4.0,91,0.00,,,0.00,Wunderground v.1.15,2013-02-09 07:10:00,
2013-02-09 02:20:00,18.8,16.6,29.80,NNW,330,5.0,5.0,91,0.00,,,0.00,Wunderground v.1.15,2013-02-09 07:20:00,
2013-02-09 02:25:00,18.8,16.6,29.81,NNE,21,5.0,6.0,91,0.00,,,0.00,Wunderground v.1.15,2013-02-09 07:25:00,
2013-02-09 02:30:00,18.6,16.4,29.80,NNW,347,5.0,5.0,91,0.00,,,0.00,Wunderground v.1.15,2013-02-09 07:30:00,
2013-02-09 02:40:00,18.6,16.4,29.80,NW,310,4.0,4.0,91,0.00,,,0.00,Wunderground v.1.15,2013-02-09 07:40:00,
2013-02-09 02:45:00,18.6,16.4,29.80,North,355,4.0,4.0,91,0.00,,,0.00,Wunderground v.1.15,2013-02-09 07:45:00,
2013-02-09 02:50:00,18.4,16.2,29.80,NNE,31,4.0,4.0,91,0.00,,,0.00,Wunderground v.1.15,2013-02-09 07:50:00,
2013-02-09 02:55:00,18.4,16.2,29.80,NNW,327,4.0,4.0,91,0.00,,,0.00,Wunderground v.1.15,2013-02-09 07:55:00,
2013-02-09 03:05:00,18.3,15.9,29.81,NW,320,4.0,7.0,90,0.00,,,0.00,Wunderground v.1.15,2013-02-09 08:05:00,
2013-02-09 03:10:00,18.3,16.1,29.80,NNW,342,4.0,4.0,91,0.00,,,0.00,Wunderground v.1.15,2013-02-09 08:10:00,
2013-02-09 03:20:00,18.1,15.9,29.80,NNW,346,3.0,6.0,91,0.00,,,0.00,Wunderground v.1.15,2013-02-09 08:20:00,
2013-02-09 03:25:00,18.1,15.9,29.80,West,281,2.0,6.0,91,0.00,,,0.00,Wunderground v.1.15,2013-02-09 08:25:00,
2013-02-09 03:30:00,18.1,15.7,29.80,NNE,30,3.0,7.0,90,0.00,,,0.00,Wunderground v.1.15,2013-02-09 08:30:00,
2013-02-09 03:35:00,18.1,15.7,29.79,WNW,290,4.0,7.0,90,0.00,,,0.00,Wunderground v.1.15,2013-02-09 08:35:00,
2013-02-09 03:45:00,18.1,15.7,29.79,SW,234,3.0,4.0,90,0.00,,,0.00,Wunderground v.1.15,2013-02-09 08:45:00,
2013-02-09 03:50:00,18.0,15.6,29.79,NW,304,2.0,2.0,90,0.00,,,0.00,Wunderground v.1.15,2013-02-09 08:50:00,
2013-02-09 03:55:00,18.0,15.6,29.80,NE,46,3.0,9.0,90,0.00,,,0.00,Wunderground v.1.15,2013-02-09 08:55:00,
2013-02-09 04:05:00,18.0,15.6,29.80,SW,214,4.0,10.0,90,0.00,,,0.00,Wunderground v.1.15,2013-02-09 09:05:00,
2013-02-09 04:10:00,18.0,15.6,29.80,NNW,332,4.0,4.0,90,0.00,,,0.00,Wunderground v.1.15,2013-02-09 09:10:00,
2013-02-09 04:15:00,18.0,15.6,29.80,WNW,287,5.0,5.0,90,0.00,,,0.00,Wunderground v.1.15,2013-02-09 09:15:00,
2013-02-09 04:25:00,17.8,15.4,29.81,NNW,334,4.0,7.0,90,0.00,,,0.00,Wunderground v.1.15,2013-02-09 09:25:00,
2013-02-09 04:30:00,17.8,15.1,29.81,NNW,327,4.0,4.0,89,0.00,,,0.00,Wunderground v.1.15,2013-02-09 09:30:00,
2013-02-09 04:35:00,17.7,15.0,29.81,North,5,4.0,4.0,89,0.00,,,0.00,Wunderground v.1.15,2013-02-09 09:35:00,
2013-02-09 04:40:00,17.7,15.0,29.81,ENE,71,4.0,4.0,89,0.00,,,0.00,Wunderground v.1.15,2013-02-09 09:40:00,
2013-02-09 04:50:00,17.5,14.8,29.81,NNE,26,3.0,5.0,89,0.00,,,0.00,Wunderground v.1.15,2013-02-09 09:50:00,
2013-02-09 04:55:00,17.5,14.8,29.82,SSW,211,4.0,5.0,89,0.00,,,0.00,Wunderground v.1.15,2013-02-09 09:55:00,
2013-02-09 05:00:00,17.3,14.6,29.82,ENE,76,4.0,5.0,89,0.00,,,0.00,Wunderground v.1.15,2013-02-09 10:00:00,
2013-02-09 05:10:00,17.3,14.4,29.82,NNE,21,6.0,6.0,88,0.00,,,0.00,Wunderground v.1.15,2013-02-09 10:10:00,
2013-02-09 05:15:00,17.2,14.3,29.82,North,355,4.0,6.0,88,0.00,,,0.00,Wunderground v.1.15,2013-02-09 10:15:00,
2013-02-09 05:20:00,17.2,14.3,29.82,WSW,257,4.0,4.0,88,0.00,,,0.00,Wunderground v.1.15,2013-02-09 10:20:00,
2013-02-09 05:30:00,17.0,14.1,29.83,North,355,4.0,4.0,88,0.00,,,0.00,Wunderground v.1.15,2013-02-09 10:30:00,
2013-02-09 05:35:00,17.0,14.1,29.83,NNW,331,3.0,11.0,88,0.00,,,0.00,Wunderground v.1.15,2013-02-09 10:35:00,
2013-02-09 05:40:00,16.9,14.0,29.83,North,360,4.0,4.0,88,0.00,,,0.00,Wunderground v.1.15,2013-02-09 10:40:00,
2013-02-09 05:45:00,16.9,14.0,29.83,NNW,329,5.0,5.0,88,0.00,,,0.00,Wunderground v.1.15,2013-02-09 10:45:00,
2013-02-09 05:55:00,16.7,13.5,29.83,NW,307,4.0,6.0,87,0.00,,,0.00,Wunderground v.1.15,2013-02-09 10:55:00,
2013-02-09 06:00:00,16.7,13.5,29.83,WSW,247,5.0,5.0,87,0.00,,,0.00,Wunderground v.1.15,2013-02-09 11:00:00,
2013-02-09 06:05:00,16.5,13.3,29.84,NNW,346,4.0,5.0,87,0.00,,,0.00,Wunderground v.1.15,2013-02-09 11:05:00,
2013-02-09 06:15:00,16.5,13.6,29.84,North,355,2.0,3.0,88,0.00,,,0.00,Wunderground v.1.15,2013-02-09 11:15:00,
2013-02-09 06:20:00,16.4,13.2,29.84,South,178,3.0,3.0,87,0.00,,,0.00,Wunderground v.1.15,2013-02-09 11:20:00,
2013-02-09 06:25:00,16.4,13.2,29.84,NW,316,3.0,3.0,87,0.00,,,0.00,Wunderground v.1.15,2013-02-09 11:25:00,
2013-02-09 06:30:00,16.2,13.0,29.84,NE,35,2.0,2.0,87,0.00,,,0.00,Wunderground v.1.15,2013-02-09 11:30:00,
2013-02-09 06:40:00,16.2,13.0,29.85,North,360,4.0,4.0,87,0.00,,,0.00,Wunderground v.1.15,2013-02-09 11:40:00,
2013-02-09 06:45:00,16.2,13.0,29.85,South,184,3.0,4.0,87,0.00,,,0.00,Wunderground v.1.15,2013-02-09 11:45:00,
2013-02-09 06:50:00,16.2,13.0,29.85,NE,37,3.0,6.0,87,0.00,,,0.00,Wunderground v.1.15,2013-02-09 11:50:00,
2013-02-09 07:00:00,16.1,12.9,29.86,North,360,4.0,6.0,87,0.00,,,0.00,Wunderground v.1.15,2013-02-09 12:00:00,
2013-02-09 07:10:00,16.1,12.7,29.86,WNW,294,4.0,4.0,86,0.00,,,0.00,Wunderground v.1.15,2013-02-09 12:10:00,
2013-02-09 07:15:00,16.1,12.4,29.87,NNW,329,6.0,6.0,85,0.00,,,0.00,Wunderground v.1.15,2013-02-09 12:15:00,
2013-02-09 07:20:00,16.1,12.4,29.87,NNW,346,7.0,12.0,85,0.00,,,0.00,Wunderground v.1.15,2013-02-09 12:20:00,
2013-02-09 07:25:00,16.1,12.4,29.87,NE,40,6.0,12.0,85,0.00,,,0.00,Wunderground v.1.15,2013-02-09 12:25:00,
2013-02-09 07:35:00,15.9,12.2,29.88,NNW,337,7.0,9.0,85,0.00,,,0.00,Wunderground v.1.15,2013-02-09 12:35:00,
2013-02-09 07:40:00,15.7,11.7,29.88,North,5,7.0,8.0,84,0.00,,,0.00,Wunderground v.1.15,2013-02-09 12:40:00,
2013-02-09 07:45:00,15.7,11.7,29.88,North,10,8.0,12.0,84,0.00,,,0.00,Wunderground v.1.15,2013-02-09 12:45:00,
2013-02-09 07:50:00,15.6,11.6,29.88,East,90,8.0,8.0,84,0.00,,,0.00,Wunderground v.1.15,2013-02-09 12:50:00,
2013-02-09 08:00:00,15.6,11.6,29.89,NNW,342,7.0,13.0,84,0.00,,,0.00,Wunderground v.1.15,2013-02-09 13:00:00,
2013-02-09 08:05:00,15.6,11.6,29.89,NW,321,9.0,13.0,84,0.00,,,0.00,Wunderground v.1.15,2013-02-09 13:05:00,
2013-02-09 08:15:00,15.4,11.4,29.89,WNW,290,6.0,14.0,84,0.00,,,0.00,Wunderground v.1.15,2013-02-09 13:15:00,
2013-02-09 08:20:00,15.4,12.0,29.89,South,186,6.0,6.0,86,0.00,,,0.00,Wunderground v.1.15,2013-02-09 13:20:00,
2013-02-09 08:25:00,15.2,11.5,29.89,WSW,250,5.0,6.0,85,0.00,,,0.00,Wunderground v.1.15,2013-02-09 13:25:00,
2013-02-09 08:30:00,15.2,11.5,29.90,NNW,333,6.0,6.0,85,0.00,,,0.00,Wunderground v.1.15,2013-02-09 13:30:00,
2013-02-09 08:40:00,15.2,11.5,29.91,North,360,7.0,7.0,85,0.00,,,0.00,Wunderground v.1.15,2013-02-09 13:40:00,
2013-02-09 08:45:00,15.1,11.4,29.91,North,355,6.0,17.0,85,0.00,,,0.00,Wunderground v.1.15,2013-02-09 13:45:00,
2013-02-09 08:50:00,15.1,11.4,29.91,ENE,65,6.0,6.0,85,0.00,,,0.00,Wunderground v.1.15,2013-02-09 13:50:00,
2013-02-09 09:00:00,14.9,11.2,29.91,ESE,106,5.0,5.0,85,0.00,,,0.00,Wunderground v.1.15,2013-02-09 14:00:00,
2013-02-09 09:05:00,14.9,10.9,29.92,NW,305,5.0,7.0,84,0.00,,,0.00,Wunderground v.1.15,2013-02-09 14:05:00,
2013-02-09 09:15:00,14.8,10.6,29.92,North,9,6.0,11.0,83,0.00,,,0.00,Wunderground v.1.15,2013-02-09 14:15:00,
2013-02-09 09:20:00,14.8,10.6,29.92,North,355,6.0,6.0,83,0.00,,,0.00,Wunderground v.1.15,2013-02-09 14:20:00,
2013-02-09 09:25:00,14.8,10.3,29.93,North,5,7.0,7.0,82,0.00,,,0.00,Wunderground v.1.15,2013-02-09 14:25:00,
2013-02-09 09:30:00,14.8,10.3,29.92,North,11,7.0,7.0,82,0.00,,,0.00,Wunderground v.1.15,2013-02-09 14:30:00,
2013-02-09 09:40:00,14.8,10.0,29.93,NNW,337,4.0,4.0,81,0.00,,,0.00,Wunderground v.1.15,2013-02-09 14:40:00,
2013-02-09 09:45:00,14.6,9.8,29.93,NNW,342,4.0,10.0,81,0.00,,,0.00,Wunderground v.1.15,2013-02-09 14:45:00,
2013-02-09 09:50:00,14.6,10.1,29.93,NNW,327,6.0,7.0,82,0.00,,,0.00,Wunderground v.1.15,2013-02-09 14:50:00,
2013-02-09 10:00:00,14.6,9.8,29.93,NNE,33,6.0,6.0,81,0.00,,,0.00,Wunderground v.1.15,2013-02-09 15:00:00,
2013-02-09 10:05:00,14.6,9.8,29.93,NE,40,7.0,16.0,81,0.00,,,0.00,Wunderground v.1.15,2013-02-09 15:05:00,
2013-02-09 10:10:00,14.6,9.8,29.94,NNE,19,8.0,10.0,81,0.00,,,0.00,Wunderground v.1.15,2013-02-09 15:10:00,
2013-02-09 10:15:00,14.8,10.0,29.94,NNW,333,8.0,10.0,81,0.00,,,0.00,Wunderground v.1.15,2013-02-09 15:15:00,
2013-02-09 10:25:00,14.9,9.8,29.94,North,355,8.0,8.0,80,0.00,,,0.00,Wunderground v.1.15,2013-02-09 15:25:00,
2013-02-09 10:30:00,14.9,9.8,29.94,NW,305,8.0,16.0,80,0.00,,,0.00,Wunderground v.1.15,2013-02-09 15:30:00,
2013-02-09 10:40:00,15.2,9.9,29.95,North,350,7.0,8.0,79,0.00,,,0.00,Wunderground v.1.15,2013-02-09 15:40:00,
2013-02-09 10:45:00,15.4,9.8,29.95,NW,319,7.0,8.0,78,0.00,,,0.00,Wunderground v.1.15,2013-02-09 15:45:00,
2013-02-09 10:50:00,15.4,9.8,29.96,North,355,8.0,14.0,78,0.00,,,0.00,Wunderground v.1.15,2013-02-09 15:50:00,
2013-02-09 10:55:00,15.6,9.7,29.96,NW,307,7.0,14.0,77,0.00,,,0.00,Wunderground v.1.15,2013-02-09 15:55:00,
2013-02-09 11:05:00,15.7,9.8,29.96,NNW,329,4.0,6.0,77,0.00,,,0.00,Wunderground v.1.15,2013-02-09 16:05:00,
2013-02-09 11:15:00,15.9,9.4,29.96,NNW,338,5.0,5.0,75,0.00,,,0.00,Wunderground v.1.15,2013-02-09 16:15:00,
2013-02-09 11:20:00,16.1,9.9,29.96,NW,323,3.0,3.0,76,0.00,,,0.00,Wunderground v.1.15,2013-02-09 16:20:00,
2013-02-09 11:25:00,16.2,10.0,29.96,NE,35,3.0,3.0,76,0.00,,,0.00,Wunderground v.1.15,2013-02-09 16:25:00,
2013-02-09 11:30:00,16.4,9.9,29.96,NNW,335,5.0,7.0,75,0.00,,,0.00,Wunderground v.1.15,2013-02-09 16:30:00,
2013-02-09 11:40:00,16.9,10.0,29.96,NNW,338,6.0,9.0,74,0.00,,,0.00,Wunderground v.1.15,2013-02-09 16:40:00,
2013-02-09 11:45:00,17.0,9.5,29.96,NNE,30,8.0,9.0,72,0.00,,,0.00,Wunderground v.1.15,2013-02-09 16:45:00,
2013-02-09 11:50:00,17.2,10.0,29.96,NNW,341,7.0,16.0,73,0.00,,,0.00,Wunderground v.1.15,2013-02-09 16:50:00,
2013-02-09 12:00:00,17.7,10.2,29.96,WNW,294,5.0,6.0,72,0.00,,,0.00,Wunderground v.1.15,2013-02-09 17:00:00,
2013-02-09 12:05:00,17.8,10.6,29.96,NNW,336,6.0,10.0,73,0.00,,,0.00,Wunderground v.1.15,2013-02-09 17:05:00,
2013-02-09 12:10:00,17.8,10.3,29.96,NNW,340,8.0,9.0,72,0.00,,,0.00,Wunderground v.1.15,2013-02-09 17:10:00,
2013-02-09 12:20:00,18.3,10.5,29.96,NNW,338,8.0,9.0,71,0.00,,,0.00,Wunderground v.1.15,2013-02-09 17:20:00,
2013-02-09 12:25:00,18.6,10.4,29.97,North,11,7.0,9.0,70,0.00,,,0.00,Wunderground v.1.15,2013-02-09 17:25:00,
2013-02-09 12:30:00,19.1,10.6,29.97,North,360,6.0,6.0,69,0.00,,,0.00,Wunderground v.1.15,2013-02-09 17:30:00,
2013-02-09 12:40:00,19.7,11.8,29.97,NE,51,5.0,5.0,71,0.00,,,0.00,Wunderground v.1.15,2013-02-09 17:40:00,
2013-02-09 12:45:00,19.9,11.7,29.98,NNW,345,4.0,5.0,70,0.00,,,0.00,Wunderground v.1.15,2013-02-09 17:45:00,
2013-02-09 12:50:00,20.0,11.8,29.98,NW,315,3.0,3.0,70,0.00,,,0.00,Wunderground v.1.15,2013-02-09 17:50:00,
2013-02-09 12:55:00,20.0,12.4,29.98,NW,304,4.0,4.0,72,0.00,,,0.00,Wunderground v.1.15,2013-02-09 17:55:00,
2013-02-09 13:05:00,19.7,12.1,29.98,North,5,4.0,9.0,72,0.00,,,0.00,Wunderground v.1.15,2013-02-09 18:05:00,
2013-02-09 13:15:00,19.4,11.2,29.99,NNW,340,4.0,5.0,70,0.00,,,0.00,Wunderground v.1.15,2013-02-09 18:15:00,
2013-02-09 13:20:00,19.1,11.6,29.99,West,265,5.0,5.0,72,0.00,,,0.00,Wunderground v.1.15,2013-02-09 18:20:00,
2013-02-09 13:25:00,18.9,10.7,29.99,WNW,292,6.0,6.0,70,0.00,,,0.00,Wunderground v.1.15,2013-02-09 18:25:00,
2013-02-09 13:35:00,19.2,11.0,29.99,SW,232,4.0,6.0,70,0.00,,,0.00,Wunderground v.1.15,2013-02-09 18:35:00,
2013-02-09 13:40:00,19.4,11.2,30.00,NW,311,4.0,4.0,70,0.00,,,0.00,Wunderground v.1.15,2013-02-09 18:40:00,
2013-02-09 13:45:00,19.5,11.0,30.00,NE,40,4.0,7.0,69,0.00,,,0.00,Wunderground v.1.15,2013-02-09 18:45:00,
2013-02-09 13:55:00,19.7,10.8,30.01,WNW,290,3.0,3.0,68,0.00,,,0.00,Wunderground v.1.15,2013-02-09 18:55:00,
2013-02-09 14:00:00,19.5,10.3,30.02,South,188,4.0,4.0,67,0.00,,,0.00,Wunderground v.1.15,2013-02-09 19:00:00,
2013-02-09 14:05:00,19.5,10.6,30.01,SW,222,5.0,5.0,68,0.00,,,0.00,Wunderground v.1.15,2013-02-09 19:05:00,
2013-02-09 14:15:00,19.7,9.8,30.02,West,271,5.0,8.0,65,0.00,,,0.00,Wunderground v.1.15,2013-02-09 19:15:00,
2013-02-09 14:20:00,19.9,11.0,30.02,North,5,5.0,13.0,68,0.00,,,0.00,Wunderground v.1.15,2013-02-09 19:20:00,
2013-02-09 14:25:00,20.0,10.5,30.03,West,271,5.0,13.0,66,0.00,,,0.00,Wunderground v.1.15,2013-02-09 19:25:00,
2013-02-09 14:35:00,20.0,9.8,30.03,WSW,238,3.0,4.0,64,0.00,,,0.00,Wunderground v.1.15,2013-02-09 19:35:00,
2013-02-09 14:40:00,19.7,9.8,30.04,NW,309,5.0,15.0,65,0.00,,,0.00,Wunderground v.1.15,2013-02-09 19:40:00,
2013-02-09 14:45:00,19.2,9.7,30.05,WNW,286,6.0,15.0,66,0.00,,,0.00,Wunderground v.1.15,2013-02-09 19:45:00,
2013-02-09 14:55:00,18.9,9.1,30.05,North,355,5.0,12.0,65,0.00,,,0.00,Wunderground v.1.15,2013-02-09 19:55:00,
2013-02-09 15:00:00,18.8,8.6,30.05,NNW,331,5.0,16.0,64,0.00,,,0.00,Wunderground v.1.15,2013-02-09 20:00:00,
2013-02-09 15:05:00,18.4,8.6,30.06,North,5,5.0,16.0,65,0.00,,,0.00,Wunderground v.1.15,2013-02-09 20:05:00,
2013-02-09 15:15:00,18.3,8.5,30.06,NNW,329,5.0,5.0,65,0.00,,,0.00,Wunderground v.1.15,2013-02-09 20:15:00,
2013-02-09 15:20:00,18.3,8.5,30.07,North,350,4.0,7.0,65,0.00,,,0.00,Wunderground v.1.15,2013-02-09 20:20:00,
2013-02-09 15:25:00,18.4,8.9,30.07,South,182,4.0,7.0,66,0.00,,,0.00,Wunderground v.1.15,2013-02-09 20:25:00,
2013-02-09 15:35:00,18.3,8.1,30.08,NW,311,5.0,9.0,64,0.00,,,0.00,Wunderground v.1.15,2013-02-09 20:35:00,
2013-02-09 15:40:00,18.1,8.0,30.08,North,355,6.0,9.0,64,0.00,,,0.00,Wunderground v.1.15,2013-02-09 20:40:00,
2013-02-09 15:45:00,18.0,7.5,30.08,West,278,6.0,9.0,63,0.00,,,0.00,Wunderground v.1.15,2013-02-09 20:45:00,
2013-02-09 15:50:00,18.0,7.9,30.09,West,271,6.0,6.0,64,0.00,,,0.00,Wunderground v.1.15,2013-02-09 20:50:00,
2013-02-09 16:00:00,17.7,7.2,30.08,WNW,303,5.0,5.0,63,0.00,,,0.00,Wunderground v.1.15,2013-02-09 21:00:00,
2013-02-09 16:05:00,17.7,6.9,30.08,NNW,333,4.0,5.0,62,0.00,,,0.00,Wunderground v.1.15,2013-02-09 21:05:00,
2013-02-09 16:10:00,17.7,7.9,30.09,NE,51,3.0,3.0,65,0.00,,,0.00,Wunderground v.1.15,2013-02-09 21:10:00,
2013-02-09 16:20:00,17.5,7.4,30.09,SSW,204,4.0,4.0,64,0.00,,,0.00,Wunderground v.1.15,2013-02-09 21:20:00,
2013-02-09 16:25:00,17.3,7.2,30.10,WNW,296,3.0,4.0,64,0.00,,,0.00,Wunderground v.1.15,2013-02-09 21:25:00,
2013-02-09 16:30:00,17.2,6.8,30.10,NNE,27,4.0,4.0,63,0.00,,,0.00,Wunderground v.1.15,2013-02-09 21:30:00,
2013-02-09 16:35:00,17.0,6.6,30.10,South,179,5.0,5.0,63,0.00,,,0.00,Wunderground v.1.15,2013-02-09 21:35:00,
2013-02-09 16:45:00,16.7,6.3,30.11,SW,221,4.0,4.0,63,0.00,,,0.00,Wunderground v.1.15,2013-02-09 21:45:00,
2013-02-09 16:50:00,16.5,6.1,30.11,NNE,30,4.0,4.0,63,0.00,,,0.00,Wunderground v.1.15,2013-02-09 21:50:00,
2013-02-09 16:55:00,16.5,5.4,30.11,SSW,202,3.0,4.0,61,0.00,,,0.00,Wunderground v.1.15,2013-02-09 21:55:00,
2013-02-09 17:00:00,16.4,5.6,30.11,SW,226,4.0,4.0,62,0.00,,,0.00,Wunderground v.1.15,2013-02-09 22:00:00,
2013-02-09 17:10:00,16.2,4.7,30.12,NW,316,3.0,10.0,60,0.00,,,0.00,Wunderground v.1.15,2013-02-09 22:10:00,
2013-02-09 17:15:00,16.1,5.7,30.13,West,275,3.0,10.0,63,0.00,,,0.00,Wunderground v.1.15,2013-02-09 22:15:00,
2013-02-09 17:20:00,15.9,5.2,30.13,West,263,4.0,4.0,62,0.00,,,0.00,Wunderground v.1.15,2013-02-09 22:20:00,
2013-02-09 17:30:00,15.7,5.0,30.14,SSE,154,3.0,3.0,62,0.00,,,0.00,Wunderground v.1.15,2013-02-09 22:30:00,
2013-02-09 17:35:00,15.6,4.9,30.15,North,350,3.0,8.0,62,0.00,,,0.00,Wunderground v.1.15,2013-02-09 22:35:00,
2013-02-09 17:40:00,15.4,4.7,30.15,NE,47,4.0,4.0,62,0.00,,,0.00,Wunderground v.1.15,2013-02-09 22:40:00,
2013-02-09 17:45:00,15.4,4.7,30.15,WSW,247,3.0,4.0,62,0.00,,,0.00,Wunderground v.1.15,2013-02-09 22:45:00,
2013-02-09 17:55:00,15.2,4.9,30.16,NNE,19,3.0,3.0,63,0.00,,,0.00,Wunderground v.1.15,2013-02-09 22:55:00,
2013-02-09 18:00:00,15.1,5.4,30.17,NNW,347,2.0,2.0,65,0.00,,,0.00,Wunderground v.1.15,2013-02-09 23:00:00,
2013-02-09 18:10:00,15.1,4.4,30.17,NW,305,3.0,3.0,62,0.00,,,0.00,Wunderground v.1.15,2013-02-09 23:10:00,
2013-02-09 18:15:00,14.9,4.6,30.18,SW,232,3.0,3.0,63,0.00,,,0.00,Wunderground v.1.15,2013-02-09 23:15:00,
2013-02-09 18:20:00,14.9,3.9,30.18,North,11,3.0,8.0,61,0.00,,,0.00,Wunderground v.1.15,2013-02-09 23:20:00,
2013-02-09 18:30:00,14.8,3.8,30.19,ENE,71,3.0,3.0,61,0.00,,,0.00,Wunderground v.1.15,2013-02-09 23:30:00,
2013-02-09 18:35:00,14.8,4.8,30.19,NW,320,2.0,10.0,64,0.00,,,0.00,Wunderground v.1.15,2013-02-09 23:35:00,
2013-02-09 18:40:00,14.6,3.2,30.20,North,349,3.0,4.0,60,0.00,,,0.00,Wunderground v.1.15,2013-02-09 23:40:00,
2013-02-09 18:50:00,14.4,3.0,30.20,North,355,3.0,3.0,60,0.00,,,0.00,Wunderground v.1.15,2013-02-09 23:50:00,
2013-02-09 18:55:00,14.3,4.3,30.21,NNE,25,2.0,3.0,64,0.00,,,0.00,Wunderground v.1.15,2013-02-09 23:55:00,
2013-02-09 19:00:00,14.1,2.7,30.21,WSW,253,2.0,2.0,60,0.00,,,0.00,Wunderground v.1.15,2013-02-10 00:00:00,
2013-02-09 19:10:00,14.1,2.4,30.20,West,263,3.0,3.0,59,0.00,,,0.00,Wunderground v.1.15,2013-02-10 00:10:00,
2013-02-09 19:15:00,14.0,2.3,30.21,SW,229,3.0,3.0,59,0.00,,,0.00,Wunderground v.1.15,2013-02-10 00:15:00,
2013-02-09 19:20:00,14.0,1.9,30.21,North,355,2.0,3.0,58,0.00,,,0.00,Wunderground v.1.15,2013-02-10 00:20:00,
2013-02-09 19:25:00,13.8,2.1,30.22,NNW,336,2.0,3.0,59,0.00,,,0.00,Wunderground v.1.15,2013-02-10 00:25:00,
2013-02-09 19:35:00,13.6,1.5,30.22,NNW,327,2.0,5.0,58,0.00,,,0.00,Wunderground v.1.15,2013-02-10 00:35:00,
2013-02-09 19:40:00,13.5,2.2,30.22,WNW,297,1.0,1.0,60,0.00,,,0.00,Wunderground v.1.15,2013-02-10 00:40:00,
2013-02-09 19:45:00,13.3,1.6,30.23,NNW,331,2.0,2.0,59,0.00,,,0.00,Wunderground v.1.15,2013-02-10 00:45:00,
2013-02-09 19:55:00,13.1,1.4,30.23,South,180,2.0,2.0,59,0.00,,,0.00,Wunderground v.1.15,2013-02-10 00:55:00,
2013-02-09 20:00:00,13.1,2.2,30.23,NNW,328,3.0,3.0,61,0.00,,,0.00,Wunderground v.1.15,2013-02-10 01:00:00,
2013-02-09 20:05:00,12.9,2.0,30.24,NNW,348,2.0,3.0,61,0.00,,,0.00,Wunderground v.1.15,2013-02-10 01:05:00,
2013-02-09 20:15:00,12.8,1.5,30.24,WNW,301,2.0,3.0,60,0.00,,,0.00,Wunderground v.1.15,2013-02-10 01:15:00,
2013-02-09 20:20:00,12.8,1.5,30.24,North,5,2.0,2.0,60,0.00,,,0.00,Wunderground v.1.15,2013-02-10 01:20:00,
2013-02-09 20:25:00,12.8,1.9,30.24,NE,51,3.0,3.0,61,0.00,,,0.00,Wunderground v.1.15,2013-02-10 01:25:00,
2013-02-09 20:35:00,12.8,2.6,30.24,NW,321,4.0,4.0,63,0.00,,,0.00,Wunderground v.1.15,2013-02-10 01:35:00,
2013-02-09 20:40:00,12.9,2.0,30.24,North,360,3.0,6.0,61,0.00,,,0.00,Wunderground v.1.15,2013-02-10 01:40:00,
2013-02-09 20:45:00,13.1,2.5,30.25,NE,46,4.0,6.0,62,0.00,,,0.00,Wunderground v.1.15,2013-02-10 01:45:00,
2013-02-09 20:50:00,13.1,2.5,30.25,North,355,4.0,8.0,62,0.00,,,0.00,Wunderground v.1.15,2013-02-10 01:50:00,
2013-02-09 21:00:00,13.1,2.9,30.25,East,80,4.0,5.0,63,0.00,,,0.00,Wunderground v.1.15,2013-02-10 02:00:00,
2013-02-09 21:05:00,13.1,1.8,30.26,NNW,327,4.0,5.0,60,0.00,,,0.00,Wunderground v.1.15,2013-02-10 02:05:00,
2013-02-09 21:15:00,13.1,2.2,30.25,NNE,13,3.0,4.0,61,0.00,,,0.00,Wunderground v.1.15,2013-02-10 02:15:00,
2013-02-09 21:20:00,13.1,2.5,30.26,ENE,63,3.0,7.0,62,0.00,,,0.00,Wunderground v.1.15,2013-02-10 02:20:00,
2013-02-09 21:25:00,13.1,2.2,30.26,North,360,3.0,7.0,61,0.00,,,0.00,Wunderground v.1.15,2013-02-10 02:25:00,
2013-02-09 21:30:00,13.1,2.2,30.26,SSW,212,3.0,3.0,61,0.00,,,0.00,Wunderground v.1.15,2013-02-10 02:30:00,
2013-02-09 21:40:00,12.9,2.3,30.26,NNE,15,3.0,3.0,62,0.00,,,0.00,Wunderground v.1.15,2013-02-10 02:40:00,
2013-02-09 21:45:00,12.8,4.2,30.27,NNW,341,3.0,3.0,68,0.00,,,0.00,Wunderground v.1.15,2013-02-10 02:45:00,
2013-02-09 21:50:00,12.8,2.2,30.27,South,181,2.0,3.0,62,0.00,,,0.00,Wunderground v.1.15,2013-02-10 02:50:00,
2013-02-09 21:55:00,12.8,3.9,30.27,SSE,151,2.0,3.0,67,0.00,,,0.00,Wunderground v.1.15,2013-02-10 02:55:00,
2013-02-09 22:00:00,12.6,2.4,30.27,NNW,332,2.0,2.0,63,0.00,,,0.00,Wunderground v.1.15,2013-02-10 03:00:00,
2013-02-09 22:10:00,12.9,4.3,30.27,East,101,1.0,1.0,68,0.00,,,0.00,Wunderground v.1.15,2013-02-10 03:10:00,
2013-02-09 22:15:00,12.4,4.5,30.27,East,101,1.0,1.0,70,0.00,,,0.00,Wunderground v.1.15,2013-02-10 03:15:00,
2013-02-09 22:20:00,12.1,4.5,30.27,WSW,242,1.0,1.0,71,0.00,,,0.00,Wunderground v.1.15,2013-02-10 03:20:00,
2013-02-09 22:30:00,11.4,4.1,30.28,SSE,167,1.0,1.0,72,0.00,,,0.00,Wunderground v.1.15,2013-02-10 03:30:00,
2013-02-09 22:35:00,11.1,3.8,30.28,SSE,167,1.0,2.0,72,0.00,,,0.00,Wunderground v.1.15,2013-02-10 03:35:00,
2013-02-09 22:45:00,10.4,4.3,30.28,SSE,167,1.0,2.0,76,0.00,,,0.00,Wunderground v.1.15,2013-02-10 03:45:00,
2013-02-09 22:50:00,10.0,3.7,30.28,SSE,167,0.0,0.0,75,0.00,,,0.00,Wunderground v.1.15,2013-02-10 03:50:00,
2013-02-09 22:55:00,9.9,3.8,30.28,SSE,167,0.0,2.0,76,0.00,,,0.00,Wunderground v.1.15,2013-02-10 03:55:00,
2013-02-09 23:05:00,9.5,3.7,30.29,SSE,167,1.0,2.0,77,0.00,,,0.00,Wunderground v.1.15,2013-02-10 04:05:00,
2013-02-09 23:10:00,9.3,3.5,30.29,SSE,167,1.0,1.0,77,0.00,,,0.00,Wunderground v.1.15,2013-02-10 04:10:00,
2013-02-09 23:15:00,9.3,3.3,30.29,SSE,167,1.0,1.0,76,0.00,,,0.00,Wunderground v.1.15,2013-02-10 04:15:00,
2013-02-09 23:25:00,9.2,3.7,30.30,SSE,167,1.0,2.0,78,0.00,,,0.00,Wunderground v.1.15,2013-02-10 04:25:00,
2013-02-09 23:30:00,9.0,3.8,30.30,SSE,167,1.0,1.0,79,0.00,,,0.00,Wunderground v.1.15,2013-02-10 04:30:00,
2013-02-09 23:35:00,8.8,3.6,30.30,SSE,167,1.0,1.0,79,0.00,,,0.00,Wunderground v.1.15,2013-02-10 04:35:00,
2013-02-09 23:45:00,8.4,2.9,30.31,SSE,167,1.0,1.0,78,0.00,,,0.00,Wunderground v.1.15,2013-02-10 04:45:00,
2013-02-09 23:50:00,8.3,3.1,30.31,SSE,167,0.0,0.0,79,0.00,,,0.00,Wunderground v.1.15,2013-02-10 04:50:00,
2013-02-09 23:55:00,7.9,2.5,30.31,SSE,167,0.0,0.0,78,0.00,,,0.00,Wunderground v.1.15,2013-02-10 04:55:00,